Wind_Speed
87 93 94 88 74 46 47 43 37 34 29 38 34 33 39 26 32 36 35 39 46 73 60 56 58 63 74 75 66 69 65 68 66 61 62 61 61 58 52 47 39 36 30 30 34 35 30 24 27 26 25 25 25 25
93 95 93 81 60 42 43 41 36 37 39 35 36 37 32 31 31 42 44 41 42 57 56 40 53 54 57 71 76 59 55 58 56 63 63 61 62 59 54 50 45 38 32 30 28 27 30 27 30 25 25 23 22 22
97 100 84 70 50 42 45 41 35 35 36 32 36 33 33 37 33 38 37 35 38 40 60 40 51 43 50 61 59 61 60 62 65 66 61 59 60 58 55 51 46 39 35 32 32 28 26 30 30 28 26 21 21 21
100 93 71 56 37 32 38 44 37 33 33 31 33 33 41 32 33 32 43 37 40 34 50 42 44 54 37 66 65 66 58 62 64 64 63 63 61 58 55 51 49 46 40 34 34 30 30 27 30 28 26 25 22 22
91 71 61 48 31 26 25 25 30 29 29 29 31 33 23 16 18 23 33 39 35 37 49 43 43 47 60 66 61 66 65 64 63 50 54 63 61 60 59 55 50 48 43 39 35 32 31 29 29 29 27 24 21 24
70 63 53 42 30 33 32 22 28 27 26 28 26 25 17 13 17 20 26 33 31 39 45 53 43 40 57 62 63 60 64 61 57 60 64 60 61 61 60 55 51 49 45 41 38 37 29 29 30 34 28 25 25 22
64 54 50 44 41 39 36 27 21 29 22 26 19 20 17 11 10 9 13 22 27 35 46 40 49 49 53 60 71 60 59 58 53 52 60 64 64 64 61 56 52 48 43 39 36 35 29 33 34 35 27 29 23 19
53 46 45 43 40 33 30 28 26 24 22 23 18 26 21 9 2 8 6 7 15 23 41 47 54 56 53 48 69 52 61 64 59 60 59 60 63 61 61 55 50 46 41 36 35 35 35 38 35 35 34 30 23 18
42 42 40 34 31 28 25 27 19 26 24 22 17 26 25 20 15 8 17 18 21 26 35 48 48 46 51 47 75 54 50 50 50 50 55 56 61 60 55 55 52 45 35 37 37 38 38 38 37 37 37 32 30 28
37 34 29 30 18 5 18 18 20 19 18 19 19 21 32 24 22 20 20 24 27 22 26 40 25 32 39 45 68 58 56 54 54 46 46 58 56 55 55 53 50 34 36 37 38 39 39 40 38 35 34 34 34 31
27 27 17 10 8 3 8 16 13 9 6 14 16 14 25 26 27 22 15 16 15 11 11 9 23 33 41 48 62 66 51 41 43 43 50 56 55 52 52 50 34 32 37 41 37 37 38 37 36 36 36 36 33 32
19 18 13 13 12 12 13 10 5 3 11 10 12 12 23 29 16 5 3 7 8 19 9 7 27 42 36 47 45 37 52 41 39 45 46 51 47 44 42 37 32 34 35 39 34 34 36 36 37 37 37 35 33 33
12 12 14 16 5 8 7 5 5 9 13 7 11 13 20 16 13 7 11 12 13 20 14 17 45 41 41 44 34 32 47 42 39 44 48 45 42 37 26 24 30 34 35 34 33 34 36 37 38 39 38 36 35 35
13 9 8 7 4 4 5 3 9 11 13 13 3 15 20 16 11 9 12 6 24 12 16 36 45 38 42 40 35 43 59 48 35 31 40 35 33 24 23 25 28 32 32 31 28 29 31 34 38 39 38 37 36 35
7 6 6 7 6 8 8 10 14 18 14 10 3 18 21 16 13 14 12 17 18 21 29 41 32 27 33 27 18 32 33 57 35 25 30 33 28 22 23 27 28 29 29 29 27 29 31 33 36 38 39 39 38 38
4 8 4 17 10 15 20 22 24 24 22 25 13 20 28 17 21 19 25 23 24 32 37 28 14 15 27 33 19 28 27 43 48 32 26 22 18 22 25 28 30 31 32 31 34 33 33 35 37 39 40 40 41 40
14 10 9 15 20 23 26 27 25 23 22 23 23 31 33 27 24 20 23 26 24 24 34 27 24 20 32 29 16 24 25 42 45 37 29 22 26 32 32 34 32 32 34 35 35 36 36 34 35 36 39 39 41 42
32 34 27 20 19 17 14 14 15 11 8 17 37 39 37 30 22 22 22 16 19 20 29 31 25 22 37 25 30 22 28 34 37 34 34 27 29 33 33 31 27 29 30 29 30 31 31 31 31 28 29 33 34 36
22 26 27 27 25 26 25 22 22 22 16 6 31 41 39 35 31 28 24 21 18 21 21 32 19 29 42 28 27 25 28 32 33 35 34 34 28 20 16 16 19 18 21 24 25 26 28 28 27 28 29 30 32 33
17 20 22 22 21 26 22 18 21 20 17 11 7 31 43 36 34 32 28 25 25 24 20 19 18 28 42 32 32 35 33 33 36 34 31 26 14 15 21 19 13 12 15 19 22 21 21 22 25 28 31 33 34 34
24 20 17 14 12 11 11 10 15 9 2 3 10 20 35 41 36 32 30 27 23 23 28 27 17 22 33 45 44 43 41 33 30 28 19 14 14 15 18 17 15 17 18 19 20 21 24 27 30 30 28 29 30 30
22 21 20 19 13 8 9 11 12 11 6 3 4 15 34 45 42 37 31 29 26 21 29 33 29 29 31 40 40 39 32 27 23 18 16 17 15 15 15 17 20 19 19 20 23 26 27 25 24 27 28 29 27 24
17 15 15 14 10 9 7 6 11 12 11 11 7 5 15 39 44 48 40 35 28 28 33 36 34 31 31 37 38 32 29 29 19 16 17 16 16 16 17 18 16 16 20 23 24 23 22 23 23 21 19 19 20 21
15 9 6 7 11 12 14 13 13 13 12 9 13 12 10 19 36 52 41 34 38 46 40 38 32 37 38 34 30 24 20 18 20 20 16 15 14 14 14 15 16 16 18 16 13 11 11 12 13 16 17 20 22 24
8 8 11 11 13 16 18 17 18 16 14 12 17 21 22 23 21 25 41 39 49 55 50 42 38 36 33 25 25 25 24 20 17 16 15 14 12 10 9 10 12 10 9 11 12 13 14 14 16 19 22 24 27 30
5 13 14 13 13 18 21 24 22 22 28 28 27 27 27 24 25 29 36 40 42 42 40 42 40 28 23 21 20 20 20 17 15 13 9 8 7 8 8 7 9 11 11 12 12 13 16 19 22 25 27 29 31 34
7 13 14 14 14 14 19 26 32 34 35 30 33 32 29 27 32 33 39 40 38 36 33 31 28 26 25 22 18 20 18 12 12 10 10 9 7 6 9 9 8 10 11 13 16 19 21 23 26 29 32 34 35 35
12 15 16 15 14 13 16 23 28 28 31 29 24 20 30 31 30 29 27 30 32 31 29 27 25 23 22 25 16 14 15 12 9 7 7 7 9 6 5 7 9 12 15 17 19 21 24 26 28 29 29 30 34 37
16 16 14 15 17 17 15 20 25 27 27 28 28 27 24 27 31 31 29 28 29 29 28 27 25 24 22 23 21 20 17 15 13 11 7 3 1 4 6 9 12 15 16 19 21 21 22 23 26 29 33 36 39 40
24 23 20 15 17 17 16 21 20 24 27 25 27 30 31 30 31 34 32 32 33 33 33 31 29 27 26 24 20 15 12 9 6 4 2 1 4 7 10 12 14 15 16 17 19 21 24 28 32 35 37 39 42 44
21 22 20 17 16 18 18 14 16 16 23 30 28 26 25 26 26 28 30 31 31 30 28 25 22 19 15 14 12 11 9 8 5 2 2 4 6 8 10 12 14 16 17 20 23 27 30 33 35 38 40 43 45 46
20 21 20 19 18 16 10 14 21 19 17 19 20 21 22 21 21 25 29 29 26 23 19 17 15 14 13 12 10 8 6 4 4 7 8 9 11 13 14 15 16 18 21 26 28 31 33 35 38 41 43 44 44 46
21 20 16 15 16 18 19 17 13 14 15 17 18 18 18 23 28 27 27 24 20 17 15 15 15 12 10 9 7 6 6 7 8 10 12 14 14 15 16 17 20 23 26 28 31 33 36 38 39 40 41 42 44 45
Wind_Direction
317 318 317 316 313 294 290 291 293 259 259 277 279 286 299 296 244 237 243 246 240 228 228 230 226 220 218 214 216 223 224 222 225 224 228 230 230 231 231 234 234 244 237 228 232 241 250 247 255 264 265 264 269 272
319 318 317 316 306 286 279 280 282 265 258 274 282 285 289 293 263 248 249 250 249 241 224 230 229 227 227 210 209 209 217 219 224 224 225 228 231 230 229 232 234 235 243 238 235 237 249 256 255 264 267 271 275 275
319 318 320 312 298 280 271 266 267 262 264 267 283 286 288 292 270 248 246 243 245 249 226 232 228 221 228 204 202 201 211 216 215 217 220 227 230 230 229 230 234 233 229 239 231 234 248 254 260 260 264 270 268 264
319 321 318 311 296 289 284 254 254 259 259 266 276 282 298 280 265 259 238 238 239 249 219 227 231 223 230 199 198 196 200 210 216 214 217 220 222 227 229 227 227 228 229 231 234 236 245 251 253 260 264 265 267 271
320 317 316 305 277 276 303 282 248 254 253 258 277 297 280 279 273 258 241 234 238 231 219 218 225 227 224 204 196 201 207 211 216 210 215 220 221 224 226 225 223 226 227 229 235 235 239 244 251 254 260 271 274 266
317 320 317 309 273 272 280 274 251 252 253 255 271 294 257 281 285 270 235 226 230 220 222 222 226 225 223 204 193 186 190 195 202 207 211 215 222 223 226 225 224 226 229 230 234 239 238 241 245 253 254 264 268 267
322 315 311 302 288 276 272 241 247 239 249 251 274 251 238 285 280 282 232 229 233 225 219 233 234 226 225 208 196 183 185 184 189 202 210 211 215 220 223 223 223 225 231 233 237 243 238 241 240 252 257 258 267 273
321 316 312 306 293 279 262 227 230 236 236 237 268 233 236 221 249 264 222 241 227 231 226 233 235 232 225 220 204 179 191 200 206 207 213 216 216 219 219 221 224 227 230 234 239 240 234 241 247 249 253 253 255 260
320 322 323 325 303 271 240 216 223 217 223 232 248 234 234 235 257 229 220 238 240 227 227 233 235 237 227 210 197 195 197 203 203 210 218 219 220 219 217 222 226 227 233 232 235 238 240 242 244 247 253 254 250 255
326 333 342 358 8 141 178 202 203 202 218 243 255 252 228 234 233 242 246 241 246 250 251 237 232 231 202 198 195 196 191 196 201 205 212 219 217 217 219 223 229 235 234 235 234 238 240 242 247 251 257 257 258 257
336 343 353 19 37 100 172 173 169 188 267 291 263 215 221 223 230 234 236 245 251 261 270 175 204 188 174 179 188 205 195 201 201 202 208 212 210 215 222 227 233 235 234 238 235 237 242 246 250 254 257 259 261 260
345 9 66 78 91 115 124 130 138 248 308 302 179 193 214 219 209 217 204 238 229 252 245 247 184 165 167 170 178 216 202 206 209 206 210 209 208 216 223 231 230 232 233 241 239 240 243 247 251 255 258 260 263 264
31 79 77 89 103 102 98 64 21 15 10 182 194 199 198 190 209 108 177 216 214 236 243 177 167 154 160 173 171 207 202 201 210 212 213 212 215 219 222 227 228 232 234 241 243 242 243 248 252 256 259 262 262 263
76 71 48 84 108 120 26 22 353 360 7 33 105 188 191 177 150 46 54 226 229 231 168 172 148 138 140 149 184 211 210 201 195 220 215 212 215 213 234 224 223 231 235 242 241 244 245 248 252 255 258 261 263 262
63 48 23 210 286 296 302 288 296 312 341 16 137 197 187 173 114 97 90 118 111 150 168 148 137 127 149 153 185 194 199 205 181 187 206 218 219 214 216 219 224 233 238 245 242 240 241 245 248 252 254 256 258 260
39 81 146 174 239 281 288 282 281 289 294 296 263 212 191 166 138 141 122 131 125 129 150 140 146 134 147 184 158 182 187 193 193 204 209 184 198 203 204 214 216 227 234 236 239 239 237 241 245 249 252 255 257 260
16 297 257 253 267 286 300 301 301 302 288 247 233 206 188 152 150 150 141 131 152 149 168 164 174 186 164 167 122 140 170 166 188 198 194 189 197 202 214 222 222 216 223 230 236 244 250 249 250 257 260 261 261 262
31 34 43 45 47 36 30 25 21 346 301 221 214 202 187 166 168 172 164 179 172 138 165 171 178 187 159 143 138 163 169 183 193 197 194 212 215 219 224 227 224 220 233 244 247 254 262 269 273 274 275 274 275 274
21 16 19 26 30 26 20 21 17 24 33 20 202 208 197 187 172 181 177 181 176 165 162 165 146 162 181 170 170 176 173 188 193 200 208 206 207 218 209 211 215 223 234 246 258 266 271 275 275 273 269 265 265 267
17 17 16 16 17 17 15 14 17 15 7 10 62 203 203 197 190 178 186 182 179 177 179 180 164 144 168 167 169 169 173 184 189 190 196 201 206 213 213 221 231 239 246 252 257 263 264 263 264 264 266 270 274 276
348 356 4 10 19 28 36 22 21 29 93 185 162 174 185 202 205 197 201 203 188 175 181 191 164 172 167 170 174 175 181 186 183 185 199 227 217 220 217 228 243 242 245 253 261 263 268 272 276 279 279 280 283 285
335 341 345 357 355 360 16 15 26 31 34 321 69 183 201 204 206 206 206 209 188 178 190 194 180 171 174 171 178 181 189 197 191 190 194 201 198 204 212 226 235 243 253 262 268 272 276 279 277 277 281 282 283 285
336 330 341 353 351 5 11 55 79 84 79 61 80 115 190 204 205 202 204 202 185 189 192 197 191 195 190 180 184 190 193 195 206 211 200 203 213 212 220 226 230 251 263 266 271 277 278 280 280 279 278 277 277 282
345 359 37 50 49 48 61 89 69 70 72 74 69 93 108 168 180 183 184 181 190 195 202 202 191 185 180 183 180 185 200 188 191 196 204 201 205 215 224 233 252 267 268 274 285 287 274 266 271 282 288 291 291 290
16 76 82 84 74 57 74 75 76 55 47 59 74 84 95 102 139 179 192 189 185 189 194 196 189 184 180 189 188 183 188 197 192 184 192 203 214 235 253 266 265 269 276 260 261 276 283 287 292 292 292 292 293 295
84 104 91 84 82 59 70 63 68 67 72 73 77 83 86 97 117 132 138 146 153 168 178 186 190 190 182 171 171 161 156 161 167 173 186 214 243 255 253 262 259 253 262 273 278 286 293 296 298 298 299 301 304 305
105 109 105 93 79 67 66 77 85 85 82 89 86 83 87 91 103 108 106 109 114 120 126 131 138 147 149 142 150 160 169 190 196 208 223 252 248 249 229 231 261 275 285 297 301 302 301 302 307 309 309 307 306 307
94 103 98 82 73 69 72 91 90 80 77 73 73 92 102 97 99 108 109 111 119 126 128 130 139 152 162 162 171 186 187 189 200 173 153 179 197 212 254 272 295 303 301 299 302 309 311 310 309 309 310 312 312 313
108 110 104 85 90 92 92 91 93 93 90 94 99 90 89 117 128 126 125 122 124 126 130 136 142 147 143 133 124 117 118 131 147 154 156 167 253 306 309 305 301 304 311 314 312 312 314 315 317 317 317 316 316 316
110 114 108 105 108 99 109 99 94 97 105 99 105 104 107 103 108 110 111 114 115 114 113 114 116 118 119 118 122 127 130 130 121 108 93 7 319 312 308 310 315 318 321 323 324 325 325 323 322 320 321 321 321 321
115 116 121 130 127 127 121 105 95 97 106 110 112 111 111 106 105 108 112 118 114 112 112 112 111 113 115 114 111 110 113 111 104 87 359 331 325 326 332 335 335 335 335 335 333 330 327 325 325 325 325 324 324 323
130 121 112 122 145 141 134 126 118 107 103 113 120 114 112 111 115 121 123 125 121 116 112 107 109 114 114 115 114 112 107 89 40 17 7 357 350 346 345 342 342 342 339 336 333 331 330 329 330 329 328 326 327 328
140 138 131 129 142 149 142 132 117 114 128 127 130 129 125 128 127 126 126 123 118 111 112 116 116 117 116 117 109 87 58 30 12 2 357 355 353 351 350 348 345 341 339 336 334 334 335 335 332 331 333 334 334 334
Height
5404 5389 5373 5357 5345 5337 5333 5331 5328 5327 5327 5327 5327 5326 5325 5325 5325 5325 5327 5328 5331 5331 5343 5349 5360 5369 5381 5399 5415 5427 5440 5451 5465 5476 5484 5492 5499 5508 5517 5524 5532 5538 5541 5545 5549 5553 5559 5563 5564 5566 5568 5568 5570 5572
5380 5365 5349 5334 5324 5320 5317 5317 5316 5315 5315 5315 5316 5315 5314 5314 5314 5315 5315 5318 5320 5320 5329 5337 5344 5357 5365 5381 5394 5410 5424 5434 5451 5462 5470 5479 5486 5496 5507 5513 5521 5529 5534 5539 5545 5548 5549 5553 5554 5558 5559 5560 5561 5563
5356 5340 5325 5311 5303 5300 5299 5300 5301 5301 5303 5304 5305 5304 5302 5300 5300 5301 5304 5307 5306 5308 5318 5323 5336 5351 5352 5369 5380 5394 5411 5421 5434 5445 5457 5466 5474 5485 5495 5505 5512 5519 5526 5530 5535 5541 5543 5542 5545 5548 5550 5552 5552 5554
5332 5316 5304 5293 5286 5282 5279 5280 5284 5288 5291 5293 5294 5293 5290 5286 5285 5287 5289 5296 5297 5300 5305 5318 5325 5337 5345 5357 5367 5383 5397 5408 5422 5432 5442 5451 5462 5473 5483 5493 5500 5509 5515 5522 5526 5534 5533 5536 5537 5539 5541 5543 5545 5546
5309 5296 5286 5279 5276 5273 5270 5268 5272 5276 5280 5283 5284 5283 5280 5278 5277 5276 5278 5283 5288 5291 5298 5308 5313 5325 5336 5346 5358 5371 5383 5397 5410 5420 5429 5442 5451 5461 5470 5479 5490 5499 5507 5513 5519 5522 5524 5527 5529 5530 5532 5534 5536 5538
5291 5280 5268 5261 5261 5261 5261 5262 5263 5267 5270 5273 5275 5275 5275 5273 5272 5269 5270 5274 5279 5284 5292 5296 5307 5316 5326 5338 5351 5363 5376 5387 5396 5408 5418 5428 5441 5451 5457 5471 5482 5490 5497 5503 5510 5512 5518 5521 5521 5520 5524 5526 5527 5530
5274 5263 5255 5249 5245 5245 5247 5250 5252 5257 5261 5265 5267 5269 5269 5269 5268 5266 5267 5273 5275 5279 5285 5290 5295 5308 5319 5329 5339 5352 5361 5373 5386 5397 5407 5419 5428 5438 5449 5460 5471 5480 5489 5496 5501 5503 5511 5511 5510 5511 5517 5518 5520 5522
5259 5249 5240 5232 5226 5225 5228 5236 5242 5248 5254 5258 5260 5263 5265 5266 5266 5266 5268 5270 5273 5276 5280 5281 5287 5301 5313 5322 5331 5346 5359 5369 5376 5387 5400 5411 5420 5428 5438 5451 5461 5470 5479 5487 5490 5491 5498 5498 5502 5505 5507 5510 5513 5514
5247 5239 5230 5217 5209 5206 5215 5225 5233 5240 5247 5251 5255 5258 5260 5262 5262 5263 5264 5267 5269 5273 5273 5274 5282 5293 5304 5313 5326 5338 5352 5362 5373 5381 5393 5403 5410 5417 5437 5444 5452 5463 5471 5475 5478 5481 5486 5490 5494 5497 5497 5502 5504 5506
5243 5234 5227 5216 5206 5205 5214 5224 5230 5236 5244 5248 5250 5251 5256 5259 5260 5261 5263 5264 5266 5268 5268 5271 5277 5281 5294 5305 5324 5338 5348 5360 5369 5377 5385 5390 5405 5421 5427 5435 5443 5458 5461 5464 5468 5473 5477 5480 5483 5487 5490 5492 5495 5497
5240 5233 5226 5222 5220 5221 5223 5228 5234 5239 5242 5243 5243 5246 5251 5255 5258 5260 5262 5263 5263 5262 5262 5266 5269 5275 5289 5303 5321 5332 5343 5354 5360 5369 5376 5386 5404 5414 5421 5428 5441 5447 5450 5451 5460 5465 5468 5471 5475 5478 5481 5482 5484 5486
5239 5235 5231 5230 5229 5230 5232 5235 5238 5241 5240 5238 5240 5244 5248 5253 5257 5259 5260 5261 5261 5262 5264 5266 5270 5280 5290 5301 5315 5328 5339 5347 5356 5366 5374 5385 5403 5410 5417 5425 5433 5437 5443 5442 5451 5457 5460 5462 5465 5468 5470 5472 5474 5475
5241 5240 5239 5238 5238 5240 5240 5241 5242 5242 5240 5238 5240 5244 5249 5253 5255 5259 5260 5259 5258 5258 5261 5270 5275 5282 5291 5303 5314 5325 5333 5342 5356 5365 5374 5387 5398 5407 5414 5419 5426 5429 5434 5437 5442 5448 5450 5453 5455 5457 5459 5461 5463 5464
5247 5247 5246 5245 5245 5244 5245 5245 5244 5244 5243 5242 5244 5247 5249 5251 5255 5256 5257 5255 5254 5259 5263 5267 5279 5287 5295 5312 5322 5324 5333 5348 5358 5368 5377 5386 5395 5403 5408 5413 5418 5421 5426 5428 5434 5437 5441 5444 5446 5447 5449 5450 5451 5453
5252 5251 5249 5247 5247 5246 5246 5246 5245 5244 5244 5244 5246 5247 5249 5250 5253 5254 5255 5254 5254 5257 5267 5276 5284 5290 5301 5311 5321 5327 5333 5344 5356 5366 5375 5383 5392 5400 5403 5407 5411 5415 5419 5422 5425 5428 5430 5432 5433 5435 5437 5439 5440 5441
5256 5255 5255 5251 5249 5247 5245 5244 5244 5244 5242 5242 5243 5244 5247 5249 5252 5254 5256 5259 5262 5267 5275 5283 5290 5296 5301 5311 5319 5325 5334 5345 5361 5366 5373 5383 5390 5394 5398 5402 5405 5409 5412 5414 5414 5415 5419 5421 5422 5424 5426 5428 5429 5429
5260 5257 5256 5255 5252 5248 5244 5240 5238 5235 5233 5233 5236 5238 5245 5249 5252 5256 5260 5266 5269 5276 5280 5287 5294 5299 5307 5311 5320 5329 5336 5346 5355 5363 5373 5380 5384 5387 5390 5392 5394 5398 5401 5404 5407 5407 5409 5412 5415 5416 5417 5418 5419 5419
5265 5261 5257 5254 5251 5248 5244 5240 5235 5229 5225 5225 5231 5240 5247 5251 5254 5257 5264 5270 5277 5282 5289 5295 5301 5303 5310 5312 5325 5332 5337 5344 5353 5362 5370 5375 5379 5382 5383 5386 5389 5395 5398 5400 5403 5405 5406 5407 5408 5409 5410 5410 5409 5409
5268 5263 5259 5255 5251 5248 5245 5242 5238 5233 5229 5227 5231 5238 5247 5252 5257 5261 5266 5272 5278 5284 5290 5296 5302 5304 5310 5317 5326 5332 5338 5345 5353 5359 5364 5371 5375 5377 5380 5384 5388 5391 5394 5397 5399 5400 5401 5401 5401 5400 5399 5399 5398 5397
5269 5265 5260 5256 5252 5248 5245 5243 5240 5238 5236 5235 5234 5237 5246 5254 5260 5264 5268 5274 5281 5287 5292 5298 5302 5309 5314 5321 5326 5332 5339 5345 5351 5358 5362 5368 5373 5376 5379 5382 5386 5389 5391 5393 5394 5394 5394 5394 5393 5392 5391 5390 5388 5387
5269 5265 5260 5257 5253 5248 5245 5242 5240 5237 5235 5233 5232 5234 5239 5249 5257 5265 5271 5276 5283 5288 5295 5299 5306 5310 5317 5322 5328 5334 5340 5347 5354 5359 5366 5370 5371 5374 5378 5381 5383 5385 5386 5386 5386 5387 5387 5386 5385 5384 5383 5382 5380 5378
5268 5263 5259 5256 5252 5249 5246 5243 5241 5238 5235 5234 5234 5236 5241 5248 5255 5263 5270 5276 5283 5289 5296 5301 5307 5312 5318 5324 5329 5337 5345 5351 5357 5362 5365 5367 5370 5373 5375 5377 5379 5380 5380 5380 5380 5381 5380 5378 5377 5376 5375 5373 5371 5369
5266 5264 5260 5256 5252 5250 5249 5245 5243 5241 5239 5238 5238 5238 5240 5246 5256 5264 5269 5276 5283 5288 5294 5300 5305 5312 5318 5324 5333 5340 5346 5352 5357 5361 5363 5365 5368 5370 5371 5373 5374 5375 5376 5376 5375 5374 5373 5372 5370 5368 5367 5366 5364 5362
5266 5264 5261 5257 5256 5253 5250 5248 5247 5246 5244 5243 5242 5242 5242 5244 5252 5263 5270 5278 5281 5288 5293 5302 5309 5317 5324 5331 5337 5343 5348 5351 5354 5357 5359 5362 5365 5366 5368 5369 5371 5372 5372 5371 5369 5368 5367 5366 5365 5363 5361 5360 5358 5355
5269 5267 5265 5263 5261 5259 5257 5254 5253 5252 5250 5248 5248 5250 5251 5252 5257 5263 5271 5281 5288 5290 5296 5304 5312 5321 5328 5334 5338 5341 5344 5349 5352 5356 5359 5361 5363 5365 5366 5367 5367 5367 5367 5366 5366 5365 5363 5362 5360 5358 5356 5353 5350 5347
5270 5269 5270 5269 5268 5267 5265 5263 5262 5261 5259 5259 5258 5259 5260 5263 5266 5270 5274 5280 5288 5296 5303 5310 5318 5326 5331 5335 5339 5342 5345 5349 5353 5357 5359 5361 5362 5363 5364 5364 5364 5364 5363 5363 5362 5360 5359 5357 5355 5352 5349 5345 5341 5337
5273 5274 5274 5275 5275 5275 5274 5273 5272 5272 5272 5273 5273 5273 5275 5278 5282 5287 5290 5294 5298 5304 5311 5317 5324 5329 5334 5338 5342 5346 5350 5353 5355 5357 5359 5360 5360 5361 5362 5362 5362 5362 5361 5359 5358 5356 5354 5351 5348 5344 5340 5336 5332 5327
5277 5278 5280 5281 5282 5282 5282 5281 5282 5282 5283 5283 5285 5288 5290 5291 5294 5296 5299 5304 5308 5313 5318 5323 5328 5333 5337 5341 5345 5348 5351 5353 5355 5356 5357 5359 5361 5361 5361 5361 5360 5359 5358 5356 5353 5350 5347 5344 5341 5337 5332 5328 5323 5318
5283 5284 5286 5288 5289 5290 5290 5291 5291 5291 5292 5294 5296 5300 5301 5302 5304 5307 5310 5313 5316 5320 5324 5328 5332 5336 5340 5344 5347 5349 5353 5356 5358 5359 5360 5360 5360 5361 5360 5359 5357 5355 5353 5350 5348 5345 5341 5338 5334 5329 5324 5319 5312 5306
5290 5291 5293 5295 5296 5297 5299 5299 5300 5301 5303 5304 5306 5308 5311 5313 5315 5317 5319 5322 5325 5329 5332 5336 5340 5343 5346 5349 5352 5355 5357 5358 5359 5360 5360 5360 5360 5359 5357 5356 5354 5351 5349 5346 5343 5340 5336 5331 5326 5320 5314 5308 5302 5295
5296 5298 5300 5302 5304 5305 5306 5307 5308 5310 5312 5314 5316 5318 5320 5321 5323 5325 5328 5331 5334 5338 5341 5344 5347 5350 5352 5354 5356 5358 5359 5360 5360 5361 5360 5359 5358 5357 5355 5353 5350 5348 5345 5342 5339 5334 5329 5323 5317 5311 5305 5299 5292 5284
5301 5303 5305 5308 5311 5313 5314 5315 5316 5318 5320 5321 5323 5325 5328 5330 5332 5334 5336 5339 5343 5346 5348 5350 5352 5355 5357 5359 5360 5361 5362 5362 5361 5360 5359 5358 5356 5354 5352 5350 5347 5345 5342 5338 5333 5328 5322 5316 5310 5303 5296 5288 5281 5273
5304 5307 5310 5312 5315 5318 5320 5322 5323 5324 5326 5328 5330 5331 5333 5336 5339 5342 5345 5347 5350 5351 5353 5355 5357 5359 5360 5362 5362 5362 5362 5362 5361 5359 5358 5356 5354 5352 5350 5348 5345 5342 5337 5333 5327 5322 5316 5309 5302 5294 5287 5279 5271 5263